Probability
0 0 0 0 0 0 0 0 0 0 0 0 0 0 0 0 0 2 5 6 5 4 3 5 10 22 39 57 70 74 76 75 64 54 58 54 35 20 14 8 3 2 5 6
0 0 0 0 0 0 0 0 0 0 0 0 0 0 0 0 0 2 7 11 13 11 10 10 16 31 47 60 67 70 72 77 75 69 72 70 53 34 24 18 11 5 5 5
0 0 0 0 0 0 0 0 0 0 0 0 0 0 0 0 0 1 6 12 15 15 16 17 22 32 44 51 56 60 67 77 83 83 84 82 70 50 36 29 21 11 5 3
0 0 0 0 0 0 0 0 0 0 0 0 0 0 0 0 0 0 2 7 9 9 11 14 17 21 25 30 35 42 52 61 69 74 77 75 66 50 37 29 21 13 6 2
0 0 0 0 0 0 0 0 0 0 0 0 0 0 0 0 0 0 1 3 4 3 4 6 7 8 9 11 14 20 27 33 39 46 50 50 44 35 27 20 13 10 7 4
0 0 0 0 0 0 0 0 0 0 0 0 0 0 0 0 0 0 0 1 1 1 1 1 1 2 2 3 4 6 9 12 16 20 22 21 19 16 13 10 7 7 6 5
0 0 0 0 0 0 0 0 0 0 0 0 0 0 0 0 0 0 0 0 0 0 0 0 0 0 0 1 1 1 1 3 5 7 7 5 4 3 3 4 5 5 5 4
0 0 0 0 0 0 0 0 0 0 0 0 0 0 0 0 0 0 0 0 0 0 0 0 0 0 0 0 0 0 0 0 1 2 1 1 0 0 0 1 2 3 2 1
0 0 0 0 0 0 0 0 0 0 0 0 0 0 0 0 0 0 0 0 0 0 0 0 0 0 0 0 0 0 0 0 0 0 0 0 0 0 0 0 0 0 0 0
0 0 0 0 0 0 0 0 0 0 0 0 0 0 0 0 0 0 0 0 0 0 0 0 0 0 0 0 0 0 0 0 0 0 0 0 0 0 0 0 0 0 0 0
0 0 0 0 0 0 0 0 0 0 0 0 0 0 0 0 0 0 0 0 0 0 0 0 0 0 0 0 0 0 0 0 0 0 0 0 0 0 0 0 0 0 0 0
0 0 0 0 0 0 0 0 0 0 0 0 0 0 0 0 0 0 0 0 0 0 0 0 0 0 0 0 0 0 0 0 0 0 0 0 0 0 0 0 0 0 0 0
0 0 0 0 0 0 0 0 0 0 0 0 0 0 0 0 0 0 0 0 0 0 0 0 0 0 0 0 0 0 0 0 0 0 0 0 0 0 0 0 0 0 0 0
0 0 0 0 0 0 0 0 0 0 0 0 0 0 0 0 0 0 0 0 0 0 0 0 0 0 0 0 0 0 0 0 0 0 0 0 0 0 0 0 0 0 0 0
0 0 0 0 0 0 0 0 0 0 0 0 0 0 0 0 0 0 0 0 0 0 0 0 0 0 0 0 0 0 0 0 0 0 0 0 0 0 0 0 0 0 0 0
0 0 0 0 0 0 0 0 0 0 0 0 0 0 0 0 0 0 0 0 0 0 0 0 0 0 0 0 0 0 0 0 0 0 0 0 0 0 0 0 0 0 0 0
0 0 0 0 0 0 0 0 0 0 0 0 0 0 0 0 0 0 0 0 0 0 0 0 0 0 0 0 0 0 0 0 0 0 0 0 0 0 0 0 0 0 0 0
0 0 0 0 0 0 0 0 0 0 0 0 0 0 0 0 0 0 0 0 0 0 0 0 0 0 0 0 0 0 0 0 0 0 0 0 0 0 0 0 0 0 0 0
0 0 0 0 0 0 0 0 0 0 0 0 0 0 0 0 0 0 0 0 0 0 0 0 0 0 0 0 0 0 0 0 0 0 0 0 0 0 0 0 0 0 0 0
0 0 0 0 0 0 0 0 0 0 0 0 0 0 0 0 0 0 0 0 0 0 0 0 0 0 0 0 0 0 0 0 0 0 0 0 0 0 0 0 0 0 0 0
0 0 0 0 0 0 0 0 0 0 0 0 0 0 0 0 0 0 0 0 0 0 0 0 0 0 0 0 0 0 0 0 0 0 0 0 0 0 0 0 0 0 0 0
0 0 0 0 0 0 0 0 0 0 0 0 0 0 0 0 0 0 0 0 0 0 0 0 0 0 0 0 0 0 0 0 0 0 0 0 0 0 0 0 0 0 0 0
0 0 0 0 0 0 0 0 0 0 0 0 0 0 0 0 0 0 0 0 0 0 0 0 0 0 0 0 0 0 0 0 0 0 0 0 0 0 0 0 0 0 0 0
0 0 0 0 0 0 0 0 0 0 0 0 0 0 0 0 0 0 0 0 0 0 0 0 0 0 0 0 0 0 0 0 0 0 0 0 0 0 0 0 0 0 0 0
0 0 0 0 0 0 0 0 0 0 0 0 0 0 0 0 0 0 0 0 0 0 0 0 0 0 0 0 0 0 0 0 0 0 0 0 0 0 0 0 0 0 0 0
0 0 0 0 0 0 0 0 0 0 0 0 0 0 0 0 0 0 0 0 0 0 0 0 0 0 0 0 0 0 0 0 0 0 0 0 0 0 0 0 0 0 0 0
0 0 0 0 0 0 0 0 0 0 0 0 0 0 0 0 0 0 0 0 0 0 0 0 0 0 0 0 0 0 0 0 0 0 0 0 0 0 0 0 0 0 0 0
Wind_Speed
14 13 9 9 10 12 8 5 3 5 8 12 12 11 12 13 13 12 9 7 5 3 1 2 3 2 3 5 7 8 7 6 6 5 5 4 4 4 5 4 4 5 6 7
16 14 10 7 17 14 10 11 10 10 9 12 12 11 12 15 15 14 13 11 9 7 4 3 3 3 3 3 4 5 5 5 4 2 3 4 3 3 4 4 3 3 4 5
11 14 8 9 16 15 13 14 11 12 11 15 15 13 14 16 15 14 14 14 13 12 10 9 7 6 6 5 5 4 4 4 4 1 0 1 2 3 3 3 4 4 4 4
8 10 5 6 7 12 10 13 17 16 17 19 18 7 13 17 16 14 13 13 12 11 11 11 10 9 8 9 8 8 7 6 5 4 3 2 2 3 4 4 4 4 5 4
5 7 5 6 9 11 9 6 15 18 20 21 23 11 13 19 15 12 11 9 9 9 9 9 10 9 9 10 9 9 8 6 6 5 4 4 3 4 3 4 4 4 4 4
6 6 5 5 12 14 7 1 14 17 19 20 21 13 12 17 13 10 8 7 7 8 8 8 8 9 10 9 8 7 6 6 5 4 4 4 4 4 3 3 3 3 3 4
8 5 4 4 11 10 5 7 14 15 17 17 15 12 15 16 11 6 5 6 6 6 6 6 7 8 8 7 6 5 5 5 5 4 4 3 4 4 4 3 3 3 3 3
7 6 4 8 8 7 5 9 11 14 15 16 16 16 16 15 10 5 4 4 4 4 5 5 6 6 6 4 3 3 3 3 4 4 5 5 4 4 4 3 3 3 3 3
5 4 4 5 4 4 5 9 11 12 15 16 17 16 16 14 11 6 2 3 2 2 2 3 4 5 4 3 3 2 2 2 3 4 4 5 5 5 4 3 3 2 2 2
5 5 8 6 6 7 8 10 12 13 14 15 16 16 15 13 10 6 1 2 0 1 1 3 2 3 4 3 4 2 2 2 4 4 5 5 5 5 4 5 4 3 2 2
4 6 7 7 10 11 11 11 12 13 13 14 15 15 14 12 10 6 2 2 1 2 1 2 3 3 4 3 5 3 3 3 4 4 3 4 5 5 5 6 5 4 4 3
4 7 7 10 11 12 12 12 13 13 14 14 13 13 12 11 9 6 4 2 3 2 3 1 3 3 4 2 4 4 4 4 2 2 2 2 3 4 8 7 10 12 11 7
4 6 7 9 10 11 11 12 13 13 13 14 12 11 12 10 9 7 5 1 3 4 3 0 2 2 3 2 2 3 3 3 2 2 1 0 1 2 2 3 8 11 12 11
3 6 8 9 10 11 12 12 12 12 12 12 11 11 11 10 10 8 6 3 3 4 4 3 2 2 3 2 1 2 2 2 1 1 1 1 2 1 2 2 2 3 6 8
4 6 8 9 10 10 11 12 12 12 12 12 11 11 12 12 11 10 8 5 3 4 4 3 2 3 3 1 1 2 3 2 2 2 1 2 2 2 3 3 3 2 2 2
5 7 8 9 10 11 12 13 12 12 12 13 12 12 13 13 11 10 7 4 4 5 5 4 3 3 5 3 1 1 3 3 2 2 1 1 2 2 3 3 3 3 3 2
5 7 8 9 10 11 11 12 12 12 12 13 13 13 13 13 11 9 7 4 4 4 4 4 4 4 5 3 2 1 3 4 1 2 1 2 2 3 3 3 3 3 3 3
4 6 7 9 9 10 11 12 11 12 12 12 12 12 12 12 11 10 9 6 4 4 5 4 4 6 5 4 2 1 1 3 2 1 2 3 2 3 3 3 3 3 2 2
4 6 7 8 8 9 10 11 11 11 11 11 12 12 11 11 11 10 9 7 4 4 5 4 5 6 6 5 3 1 1 1 2 3 3 2 1 3 3 3 3 3 2 2
4 5 6 8 8 8 9 10 10 10 10 11 11 11 11 11 11 11 9 6 4 3 3 5 6 5 6 6 4 2 1 2 3 3 2 1 2 3 3 3 2 3 2 2
4 5 6 7 8 8 9 9 9 9 10 11 11 11 11 11 11 10 8 6 5 3 1 5 5 4 5 7 5 2 1 2 3 2 2 1 2 3 3 3 2 2 3 3
5 4 6 7 7 8 8 8 9 9 10 10 11 11 10 9 10 9 9 6 3 2 3 3 3 6 9 10 4 3 2 2 3 2 2 2 2 2 3 3 3 3 3 3
4 5 6 7 8 8 9 8 8 8 9 10 11 10 9 8 7 7 8 5 2 2 2 3 6 13 13 6 4 3 3 3 3 3 2 2 2 3 3 3 3 4 4 4
5 5 6 7 7 8 8 7 7 7 8 9 9 9 9 7 6 6 6 6 2 3 2 5 13 15 11 4 4 4 3 3 3 2 2 2 2 3 3 4 4 4 4 5
6 6 7 6 6 5 6 7 7 6 6 7 9 9 8 6 7 7 7 6 1 3 2 7 13 13 7 4 4 4 3 3 3 3 2 2 3 3 4 4 4 4 4 4
5 4 4 5 5 4 5 5 4 4 5 6 6 6 8 7 7 7 6 5 2 3 3 5 6 7 4 3 5 5 5 5 4 3 3 3 4 4 4 5 6 4 4 5
6 5 4 4 5 5 4 3 3 4 4 5 6 7 8 8 7 7 8 4 1 3 3 4 5 5 3 4 4 4 4 5 4 4 3 3 3 4 4 5 5 5 5 5
Wind_Direction
309 302 287 280 306 310 322 347 28 31 39 12 355 337 337 348 349 347 344 333 316 292 230 165 187 202 177 169 161 164 163 168 175 191 178 183 210 208 203 219 209 190 182 178
312 309 300 21 15 12 25 28 48 53 33 351 346 352 13 8 6 7 5 8 7 6 31 61 96 91 85 103 125 144 158 161 155 173 170 179 210 237 215 205 222 226 198 182
315 316 309 52 17 9 35 38 40 39 11 354 355 15 29 16 14 16 16 17 22 26 33 44 59 72 73 67 63 65 74 87 92 77 32 188 226 246 247 219 217 233 232 200
321 337 46 59 18 360 4 37 24 13 4 358 350 14 46 23 16 17 19 18 19 24 33 42 48 54 60 58 52 45 43 43 41 25 10 342 293 269 255 239 223 226 241 225
344 348 65 33 1 346 327 6 17 0 355 355 350 3 26 11 8 16 19 16 16 25 35 39 43 46 56 59 52 44 34 31 30 18 3 341 315 299 284 272 251 227 226 226
357 0 24 346 329 320 282 324 6 351 348 350 356 4 350 345 352 12 16 13 18 26 32 39 42 48 55 55 51 41 29 29 23 12 352 335 325 313 304 295 286 262 238 218
2 20 72 339 336 348 40 333 328 333 336 342 345 334 322 330 341 3 23 20 28 35 28 33 46 57 56 51 49 40 26 22 14 7 352 3 351 336 329 322 313 299 281 253
356 13 28 8 1 16 325 309 318 324 328 329 325 323 326 329 332 346 41 41 34 43 37 32 38 61 69 45 33 53 40 26 18 20 15 13 3 354 352 351 335 315 308 296
350 3 10 354 360 343 314 314 319 320 321 321 321 324 327 327 328 339 55 74 50 66 79 63 43 42 58 39 355 22 43 39 42 43 48 30 17 10 6 4 354 336 322 298
341 1 359 358 359 341 329 321 318 316 316 317 317 319 322 323 325 333 21 104 153 273 135 106 85 68 62 8 327 340 65 65 69 51 49 49 31 19 20 14 6 353 344 325
327 358 348 347 346 335 327 323 320 317 315 313 313 315 317 319 323 325 325 127 143 300 314 114 96 82 73 14 328 343 47 69 85 82 71 71 64 39 28 43 32 16 3 14
332 347 333 327 331 327 327 325 322 319 316 315 311 311 315 317 319 317 314 152 167 243 280 67 85 87 95 38 334 14 45 37 48 89 93 102 120 99 57 56 51 49 43 46
327 337 320 316 325 329 324 322 320 316 313 314 315 317 318 315 315 316 311 248 185 201 231 237 98 88 106 106 6 20 64 40 30 42 70 97 137 135 129 81 65 56 47 50
328 318 321 329 328 327 328 328 324 322 323 324 324 323 320 319 321 320 312 287 201 195 210 208 165 127 109 110 72 34 78 101 15 13 5 27 48 65 107 120 93 67 53 49
323 326 322 325 329 333 335 335 335 335 334 332 329 326 325 325 321 315 305 286 213 200 219 217 196 153 127 120 15 39 46 54 30 18 26 48 56 60 81 97 103 101 102 74
325 323 330 333 334 335 337 338 337 335 334 331 329 328 324 318 310 302 293 271 230 214 218 219 210 164 147 157 156 107 100 76 3 335 11 74 83 84 83 90 92 82 68 50
307 323 330 329 330 332 332 332 332 333 331 330 328 324 320 317 314 312 307 279 236 227 225 217 197 154 146 164 191 212 147 137 218 299 30 64 76 92 96 94 89 83 74 49
309 315 314 317 322 324 324 327 329 329 328 326 324 322 322 320 316 313 309 292 244 222 230 228 178 149 150 166 185 256 159 154 177 107 74 62 57 80 92 98 99 101 112 101
291 301 307 312 316 315 319 321 322 323 325 327 326 323 319 314 311 308 306 300 271 241 224 208 173 156 153 154 157 204 244 148 124 103 104 112 110 104 105 107 110 111 102 88
277 296 304 309 313 317 315 314 318 321 324 327 326 324 323 320 317 315 311 301 273 246 225 178 162 168 155 145 159 208 213 137 117 114 112 123 111 112 118 119 117 115 111 95
266 287 300 308 313 312 311 315 318 320 326 328 327 324 321 318 316 314 308 301 287 245 187 152 157 157 144 141 166 204 186 139 121 124 131 128 120 119 124 123 116 105 99 94
251 279 295 304 308 311 317 318 318 324 328 325 323 322 322 321 322 318 308 290 290 152 142 158 167 145 139 141 168 178 164 139 128 132 137 136 127 125 127 123 110 99 93 89
260 284 299 306 308 312 315 317 326 328 322 320 319 322 326 320 313 308 306 309 324 170 192 183 152 140 142 151 162 158 164 153 142 143 145 144 131 125 124 120 106 99 94 89
264 281 289 294 300 306 311 319 322 316 314 315 315 325 330 323 318 314 311 317 311 187 235 158 148 149 153 165 151 157 165 150 136 136 134 125 114 114 110 107 103 98 95 91
261 272 280 293 298 299 307 310 309 311 314 316 319 330 333 321 312 309 305 305 252 181 171 158 160 157 168 173 154 160 154 140 138 138 135 125 112 110 112 113 112 109 104 95
266 274 277 279 281 281 282 283 292 305 313 315 318 329 324 317 312 308 300 291 210 190 159 152 165 171 197 169 152 153 141 133 134 141 141 133 127 118 114 114 113 111 108 104
262 263 255 253 255 252 258 271 284 296 307 311 321 320 314 316 319 322 319 310 164 180 167 163 171 186 194 145 145 151 146 149 157 155 146 136 127 125 127 126 120 114 113 114